Find Local Weather

World > North America > United States > Florida

Miami, Florida Regional Weather

Lat: 25.77N, Lon: 80.2W
Wx Zone: FLZ074
Feedback
Expires:201804270000;;080857
ASUS42 KTBW 262317
RWRFL 
FLORIDA REGIONAL WEATHER ROUNDUP
NATIONAL WEATHER SERVICE TAMPA BAY RUSKIN FL
700 PM EDT THU APR 26 2018

NOTE: "FAIR" INDICATES FEW OR NO CLOUDS BELOW 12,000 FEET WITH NO
SIGNIFICANT WEATHER AND/OR OBSTRUCTIONS TO VISIBILITY.


FLZ067-068-071>074-168-172>174-270000-
SOUTHEAST FLORIDA 
  
CITY           SKY/WX    TMP DP  RH WIND       PRES   REMARKS
W PALM BEACH   PTSUNNY   77  65  66 S15       29.88R                  
BOCA RATON     PTSUNNY   77  66  69 SE13      29.89S                  
FT LAUDER-EXEC FAIR      80  66  62 S9        29.88R                  
FT LAUDERDALE  PTSUNNY   79  68  69 S16       29.88R                  
POMPANO BEACH  PTSUNNY   79  67  66 S8        29.89R                  
PEMBROKE PINES FAIR      81  66  60 S12       29.90R                  
OPA LOCKA      FAIR      80  67  64 S14       29.90R                  
MIAMI          PTSUNNY   79  68  69 SE10G18   29.90R                  
WEST KENDALL   PTSUNNY   80  67  64 SE9       29.90R                  
HOMESTEAD      FAIR      80  67  65 S7        29.90R                  

STATION/POSITION SKY/WX   TEMP    WIND        PRES    WAVE   SWELL
                          AIR SEA DIR/SP/G            HT/PER HT/PER
                          (F)     (DEG/KT/KT) (MB)    (FT/S) (FT/S)
PORT EVERGLADES            78     170/ 13/ 18 1012.2
VIRGINIA KEY               78 82  140/  9/ 13 1012.1R
LAKE WORTH                 76 79  180/ 16/ 18 1012.9R
FOWEY ROCKS                77 78  150/ 16/ 16 1013.2R
SETTLEMENT POINT           77     160/  7/  8 1013.0R

$$

  

SKY/WX - Weather  TMP - Temperature  DP - Dewpoint  RH - Relative Humidity
WIND - Wind Direction/Speed PRES - Barometric Pressure